Regional Weather Roundup
Issued by NWS

Home | Current Version | Previous Version | Graphics & Text | Print | Product List | Glossary On
Versions: 1 2 3 4 5 6 7 8 9 10 11 12 13 14 15 16 17 18 19 20 21 22 23 24 25 26 27 28 29 30 31 32 33 34 35 36 37 38 39 40 41 42 43 44 45 46 47 48 49 50
000
ASUS45 KCYS 252210
RWRWY

WYOMING REGIONAL WEATHER ROUNDUP
NATIONAL WEATHER SERVICE CHEYENNE WY
400 PM MDT FRI JUL 25 2014

NOTE:  "FAIR" INDICATES FEW OR NO CLOUDS BELOW 12,000 FEET
WITH NO SIGNIFICANT WEATHER AND/OR OBSTRUCTIONS TO VISIBILITY.

WYZ001-252300-
YELLOWSTONE NATIONAL PARK

CITY           SKY/WX    TMP DP  RH WIND       PRES   REMARKS
LK YELLOWSTONE   N/A     70  11  10 W13G22    30.24F
W YELLOWSTONE  NOT AVBL

$$
WYZ002>013-054>058-071-098>099-252300-
NORTHERN WYOMING

CITY           SKY/WX    TMP DP  RH WIND       PRES   REMARKS
JACKSON        SUNNY     81  25  12 CALM      30.14F
CODY           NOT AVBL
GREYBULL       SUNNY     91  22   8 W3        29.86F
WORLAND        SUNNY     91  36  14 N8        29.87F
SHERIDAN       SUNNY     89  47  23 N9        29.87F
BUFFALO        SUNNY     90  41  18 N10       29.93F
GILLETTE       SUNNY     92  39  15 W8        29.86F
HULETT         FAIR      81  50  34 MISG      29.91
NEWCASTLE      FAIR      88  36  15 MISG      29.91

$$
WYZ014>020-022>026-101>103-252300-
CENTRAL WYOMING

CITY           SKY/WX    TMP DP  RH WIND       PRES   REMARKS
BIG PINEY      SUNNY     84  30  14 W24G31    30.17F
PINEDALE       PTCLDY    82  28  14 W21G30    30.17S
DUBOIS         FAIR      77  23  13 W25G36    30.14F
LANDER         MOSUNNY   94  23   8 SW22G35   29.96F
RIVERTON       MOSUNNY   91  23   8 W15       29.98F
CASPER         MOSUNNY   96  25   8 W26G36    29.95F HX  90
DOUGLAS        MOSUNNY   90  54  29 SE15      29.96F

$$
WYZ021-027>030-104>119-252300-
SOUTHERN WYOMING

CITY           SKY/WX    TMP DP  RH WIND       PRES   REMARKS
EVANSTON       SUNNY     86  24  10 W28G39    30.20F
KEMMERER       CLEAR     82  27  13 W29       30.20S
FORT BRIDGER   FAIR      89  26  10 W26G36    30.21F
ROCK SPRINGS   SUNNY     90  26  10 W29G37    30.12F
DIXON          FAIR      84  35  17 NW26G40   30.18R
RAWLINS        MOSUNNY   82  31  15 SW39G53   30.13F
SARATOGA       MOCLDY    77  52  41 NW5       30.18F
LARAMIE        TSTM      79  41  25 W6G20     30.18S
CHEYENNE       PTSUNNY   83  48  29 S26       30.10F
TORRINGTON     PTSUNNY   87  50  27 E15       29.93F
PINE BLUFFS    MOCLDY    82  54  36 NE13      30.03F THUNDER

$$


USA.gov is the U.S. government's official web portal to all federal, state and local government web resources and services.